Regional Weather Roundup
Issued by NWS Charleston, SC

Current Version | Previous Version | Graphics & Text | Print | Product List | Glossary On
Versions: 1 2 3 4 5 6 7 8 9 10 11 12 13 14 15 16 17 18 19 20 21 22 23 24 25 26 27 28 29 30 31 32 33 34 35 36 37 38 39 40 41 42 43 44 45 46 47 48 49 50
000
ASUS42 KCHS 231427
RWRCHS

Regional Weather Roundup
National Weather Service Charleston SC
1000 AM EDT WED MAY 23 2018

NOTE: "fair" indicates few or no clouds below 12,000 feet with no
significant weather and/or obstructions to visibility.

Not all stations are quality controlled. Use data with caution,
especially dewpoint observations.

SCZ027-030-031-034>040-042>050-231500-
...Southeast South Carolina...

CITY           SKY/WX    TMP DP  RH WIND       PRES   REMARKS
N Charleston   PTSUNNY   80  70  71 W9        30.13R
Waterfront Prk   N/A     79  73  82 SW7       29.97R
Mount Pleasant FAIR      81  72  74 W7        30.13S
Johns Island   NOT AVBL
Pinopolis        N/A     75  72  88 W10       30.07R
Moncks Corner  CLOUDY    77  70  78 NW3       30.13S
Summerville    CLOUDY    77  70  78 W5        30.14S
Beaufort MCAS  FAIR      82  70  66 SW8       30.13R
Beaufort Arpt  PTSUNNY   81  70  69 W6        30.13R
Hilton Head Is MOSUNNY   81  68  65 S14       30.14R
Walterboro     CLOUDY    79  70  73 SW8       30.14S
Allendale      PTSUNNY   79  70  73 S6        30.13R

...Southern Midlands and Pee Dee...

CITY           SKY/WX    TMP DP  RH WIND       PRES   REMARKS
Georgetown     PTSUNNY   79  75  89 SW10G16   30.13S
Kingstree      RAIN      73  72  94 W5        30.13S
Orangeburg     CLOUDY    77  70  79 SW6       30.12S
Barnwell       PTSUNNY   77  70  78 CALM      30.13R
Aiken          CLOUDY    72  72 100 S5        30.16S
Manning        CLOUDY    72  68  88 W5        30.13S
Columbia       CLOUDY    80  72  76 VRB3      30.11R
Sumter         PTSUNNY   76  69  79 SW7       30.10S
Florence       CLOUDY    78  70  76 SW7       30.12S
Myrtle Beach   PTSUNNY   79  71  76 W13       30.13S
N Myrtle Beach PTSUNNY   77  73  87 W8        30.12R

$$

GAZ063-065-086>088-099>101-113>116-118-119-134>141-150-231500-
...Southeast Georgia...

CITY           SKY/WX    TMP DP  RH WIND       PRES   REMARKS
Savannah Arpt  FAIR      81  70  69 SW12      30.13S
Hunter AAF     FAIR      80  71  72 S8        30.10S
Fort Stewart   PTSUNNY   80  68  67 SW10      30.11S
Statesboro     PTSUNNY   80  70  72 W5        30.12S
Sylvania       PTSUNNY   81  73  76 W5        30.14R
Claxton        FAIR      80  70  70 S5        30.13S

...CSRA, Central and far Southeast Georgia...

CITY           SKY/WX    TMP DP  RH WIND       PRES   REMARKS
Thomson        CLOUDY    74  70  87 W5        30.17S
Augusta-Bush   CLOUDY    75  71  87 CALM      30.12R
Augusta-Daniel PTSUNNY   76  71  85 SW3       30.13S
Swainsboro     CLOUDY    77  72  83 SW7       30.13S
Vidalia        PTSUNNY   79  68  69 SW9       30.13S
Eastman        CLOUDY    76  66  71 SW8       30.15R
Hazlehurst       N/A     79  69  71 S7        30.12S
Alma           FAIR      78  70  76 S6        30.13R
Waycross       CLOUDY    80  72  76 SW6       30.13S
Jesup          FAIR      81  68  65 CALM      30.14R
Baxley         PTSUNNY   75  75 100 SW6       30.13S
Brunswick      FAIR      81  66  61 SW9       30.14R
Saint Simons   FAIR      81  69  67 SW10G21   30.13R

$$

SCZ027-028-034-036>038-045-046-048>050-GAZ119-141-231500-
...Lake and Supplemental Coastal Observations...

STATION/POSITION TIME  TEMP    WIND        PRES    WAVE   SWELL
                       AIR SEA DIR/SP/G            HT/PER HT/PER/DIR
                 (UTC) (F)     (DEG/KT/KT) (MB)    (FT/S) (FT/S/D)
Winyah Bay       1345   79     260/  8     1020.0S
Lake Murray      NOT AVBL
ACE Basin NERRS  1345   79     220/  2     1020.0S
Fort Pulaski     1354   80 78  230/  8/ 11 1020.6R
Sapelo Island    1400   81     210/ 10     1020.0

$$

ANZ835-935-AMZ111-154-330-350-352-354-370-450-454-472-231500-
...C-MAN and Buoy Observations...

STATION/POSITION TIME  TEMP    WIND        PRES    WAVE   SWELL
                       AIR SEA DIR/SP/G            HT/PER HT/PER/DIR
                 (UTC) (F)     (DEG/KT/KT) (MB)    (FT/S) (FT/S/D)
Buoy 41004       1400      74  230/  8/ 10 1020.6
Buoy 41008       1350   76 76  190/ 10/ 10 1020.1R   3/ 8   3/110/ 8
Folly Beach CMAN 1400   78     220/ 13/ 15 1021.1R
Capers Nearshore 1408   77 76  230/ 12/ 16 1021.3R
Fripp Nearshore  1408   77 78  230/ 10/ 16 1020.3R


STATION/POSITION TIME  TEMP    WIND        PRES    WAVE   SWELL
                       AIR SEA DIR/SP/G            HT/PER HT/PER/DIR
                 (UTC) (F)     (DEG/KT/KT) (MB)    (FT/S) (FT/S/D)
5E St. Marys GA  1400      76                N/A     2/ 8
Frying Pan Buoy  1410   76 76  210/ 10/ 14 1020.2
Buoy 41025       1410   75 74  240/ 16/ 17 1019.1
Cape Lookout NC  1400          230/ 12/ 15 1019.3S
Buoy 41002       1410      78  200/ 10/ 12 1021.5
Buoy 41010       1410   78 78  130/  6/  8 1021.2
St Augustine FL  1400   76 77  140/  8/  9 1020.8R


$$




USA.gov is the U.S. government's official web portal to all federal, state and local government web resources and services.